CZ-6A DEB, 60693

Orbit data source: Space-Track

CZ-6A DEB, 60693 is space debris in LEO originally from a launch on Tue, 06 Aug 2024 UTC launched from the Taiyaun Space Center, China (TSC). Debris objects in space refer to the collection of defunct objects orbiting the Earth. Examples of debris include non-operational satellites, rocket bodies, and fragments generated from explosions, collisions, or faulty payload assembly.

Loading next visibility...
Identifier
60693, 2024-140CW
Orbit
LEO
Country
Flag of CNCN / PRC
Related business
Manufacturer
SAST
Mission
Spacecraft
Bus & Motor
Unknown
Mass
Unknown
Launch date (UTC)
2024-08-06 (2 years ago)
Launch vehicle
Unknown
Launch site
Taiyaun Space Center, China (TSC)
Object type
Payload
Rocket body
Debris
Shape & HBR
Unknown shape, 0.2 m
Radar Cross Section
Medium (>0.1 m² and <1 m²)

Expand to show TLE details & history
Last TLE update: 13 hours ago

TLE from 13 hours ago
0 CZ-6A DEB
1 60693U 24140CW  26171.30036892  .00000285  00000-0  14603-3 0  9995
2 60693  89.0153 276.5524 0082609 199.2764 160.5291 14.11161223 95815
Epoch: 2026-06-20T07:12Z
TLE epoch observation values (Epoch: 2026-06-20T07:12:31.874Z)
Latitude
-0.00011°
Longitude
-100.09738°
Altitude
914.846 km
Speed
7.366 km/s
True Right ascension
18h 26m 12s
True Declination
0° 00' 00"
Sunlit
Object was in full shadow at epoch
Visualization orbit readout
Latitude
Unknown
Longitude
Unknown
Altitude
Unknown
Speed
Unknown
Apparent Right ascension
Unknown
Apparent Declination
Unknown
Sunlit
N/A
Visualization observer readout
Local Sidereal Time
07:19:25
Azimuth
Unknown
Elevation
Unknown
Doppler factor
Unknown
Orbital elements
Apogee altitude
912.095 km
Perigee altitude
792.634 km
Semi-major axis
7,230.501 km
Eccentricity
0.00826
Inclination
89.0153°
RAAN
276.5524°
Arg. of periapsis
199.2764°
True anomaly
160.84159°
Mean anomaly
160.5291°
Eccentric anomaly
160.68565°
Mean motion
3.53013 °/min
Orbital period
101.98 mins
BSTAR
0.00014603
Loading maneuver chart data...
Computing Atmospheric mass density...
Loading historical data...
Loading historical data...
Loading historical data...
Loading historical data...
Loading historical data...
Loading historical data...
Loading historical data...

Documentation

Showing up to 5 results
|